Torna al catalogo

FENGYUN 1C DEB

AttivoSSO
NORAD 38163·DEBRIS·🇨🇳 China

Lanciato May 10, 1999 da Taiyuan Satellite Launch Center

Loading…

Prossimi Passaggi (prossime 24 ore)

TLE

ObsoletoSource: Space-Track

Epoca: Aug 29, 2026, 19:59 UTC

1 38163U 99025ERL 26241.83284782  .00001006  00000-0  61989-3 0  9996
2 38163  99.1047 285.1026 0074778 238.4004 120.9851 14.06498083281977

Traccia FENGYUN 1C DEB in tempo reale con AllMySat

Download on the App Store